Location: *
(53.0557°N, 9.8577°E)
Time: 05:59:59
(UTC+00:00)

Daily predictions for brighter satellites

Satellite Brightness Start Highest point End
(mag) Time Altitude Azimuth Time Altitude Azimuth Time Altitude Azimuth
Cosmos 2227 Rocket 2.9 00:01:19 10° NW 00:06:33 39° WSW 00:09:27 23° SSW
Cosmos 1844 Rocket 4.0 00:02:25 10° NNW 00:07:45 40° NE 00:13:01 10° ESE
GEOS 3 Rocket 3.9 00:07:06 10° NE 00:12:19 70° NW 00:17:31 10° WSW
CZ-2D R/B 4.5 00:13:17 10° ENE 00:15:19 12° E 00:17:22 10° ESE
Cosmos 1238 Rocket 4.1 00:11:29 10° N 00:16:38 52° ENE 00:20:48 13° SSE
IDEFIX/ARIANE 42P 4.0 00:13:03 10° NE 00:17:31 28° E 00:21:27 12° SSE
Landsat 4 3.5 00:18:25 25° SE 00:19:45 53° ENE 00:22:30 10° N
Cosmos 1441 Rocket 4.0 00:20:22 21° WSW 00:22:05 35° WNW 00:25:19 10° N
H-2A R/B 4.4 00:22:45 10° NE 00:25:12 15° E 00:27:40 10° SE
Cosmos 2221 2.7 00:21:16 10° N 00:25:33 69° ENE 00:28:32 19° SSE
Cosmos 1315 Rocket 4.3 00:25:46 10° NW 00:28:49 23° W 00:30:17 18° WSW
Okean 1 3.0 00:26:16 10° NNW 00:30:01 80° W 00:32:02 26° S
SeaSat 1 3.7 00:26:25 10° ESE 00:31:01 42° NE 00:35:38 10° NNW
Cosmos 1812 Rocket 3.5 00:28:07 10° NNW 00:32:31 85° W 00:35:21 21° S
Geosat 4.1 00:27:51 10° NNE 00:32:52 73° NW 00:36:37 18° SW
Cosmos 1125 Rocket 3.7 00:30:24 20° SW 00:34:07 69° WNW 00:39:23 10° NNE
Nadezhda 1 Rocket 4.0 00:29:54 10° NNW 00:36:09 78° W 00:40:50 18° S
Cosmos 1346 Rocket 4.3 00:35:27 13° SE 00:37:59 26° E 00:41:07 10° NE
Meteor 2-6 Rocket 4.3 00:33:49 10° NNW 00:39:35 72° W 00:44:02 18° S
Cosmos 2150 Rocket 4.3 00:36:24 21° S 00:40:02 66° ESE 00:45:27 10° NNE
CENTAUR R/B 4.1 00:37:30 11° SSE 00:41:29 22° ESE 00:46:23 10° ENE
H-2A R/B 2.5 00:41:17 25° S 00:43:18 53° WSW 00:47:11 10° NNW
Okean 1-7 Rocket 3.7 00:42:59 21° S 00:45:59 71° E 00:50:30 10° NNE
Cosmos 2322 Rocket 4.1 00:43:48 10° SE 00:47:46 20° E 00:51:45 10° NE
ADEOS II 4.4 00:45:33 10° NE 00:48:53 17° E 00:52:14 10° SE
Cosmos 1745 Rocket 4.1 00:44:17 19° S 00:49:06 89° ESE 00:55:31 10° N
Cosmos 1825 Rocket 4.2 00:46:00 17° SSE 00:49:09 50° E 00:53:24 10° NNE
ATLAS 5 CENTAUR R/B 1.8 00:46:04 10° NW 00:50:16 78° NE 00:55:32 10° SE
CZ-4C R/B 4.3 00:50:03 10° WNW 00:54:58 32° N 01:01:07 10° ENE
Cosmos 2263 Rocket 3.1 00:50:41 10° NW 00:55:35 31° WSW 00:58:41 19° SSW
MOZ.5/SAFIR/RUBIN 5/SL-8 4.0 00:52:08 10° SSE 00:56:46 70° ENE 01:01:28 10° NNW
CZ-2C R/B 3.2 00:55:56 10° N 01:00:37 57° WNW 01:04:01 18° SW
Meteor 1-27 Rocket 4.2 00:56:18 10° N 01:02:16 69° ENE 01:08:08 10° SSE
Cosmos 2082 4.2 00:57:03 10° NW 01:02:21 42° WSW 01:06:25 16° S
Cosmos 1709 Rocket 4.1 00:57:16 16° S 01:02:27 83° E 01:08:46 10° NNE
USA 32 4.3 01:00:07 19° SSW 01:03:49 58° W 01:09:00 10° N
MSX 4.1 00:59:50 10° NNE 01:05:33 62° ESE 01:10:26 14° S
Cosmos 2369 3.7 01:01:32 18° SSW 01:05:51 89° WNW 01:11:32 10° NNE
Cosmos 2181 Rocket 4.3 01:00:47 10° N 01:06:56 66° ENE 01:13:00 10° SSE
Cosmos 1602 Rocket 3.9 01:07:34 19° SSW 01:10:30 55° WNW 01:14:48 10° N
Cosmos 2298 Rocket 4.1 01:07:44 18° SSW 01:11:47 79° WNW 01:17:07 10° NNE
Cosmos 1758 Rocket 4.4 01:09:37 17° SW 01:12:38 39° WNW 01:16:51 10° N
SL-16 R/B 4.3 01:07:53 10° ESE 01:13:23 34° NE 01:18:55 10° N
FENGYUN 3A 4.3 01:08:22 10° NNE 01:13:38 50° E 01:18:42 11° S
Cosmos 2219 4.3 01:12:53 10° NW 01:17:32 27° WSW 01:20:47 16° SSW
SL-16 R/B 2.8 01:13:38 14° S 01:18:15 50° ESE 01:23:43 10° NE
USA 290 4.4 01:17:26 10° WNW 01:19:03 13° W 01:19:33 13° WSW
Meteor 1-10 Rocket 4.4 01:14:18 10° NNW 01:20:00 65° W 01:25:25 12° S
Cosmos 2333 Rocket 3.3 01:15:34 10° S 01:20:37 35° ESE 01:25:43 10° NE
Cosmos 1842 Rocket 3.8 01:17:26 10° N 01:21:52 70° ENE 01:26:13 10° SSE
USA 276 3.8 01:22:20 14° SSE 01:22:37 14° SSE 01:24:05 10° ESE
BREEZE M DEB (TANK) 3.1 01:21:29 13° WSW 01:23:26 33° S 01:27:30 10° SE
BREEZE-M DEB 4.2 01:09:59 10° W 01:24:07 62° SSW 01:28:00 10° ESE
ATLAS 2AS CENTAUR R/B 3.5 01:18:36 10° WNW 01:24:16 29° WSW 01:29:12 13° SSW
Meteor 2-4 Rocket 4.0 01:20:17 10° N 01:25:39 63° ENE 01:30:57 10° SSE
Cosmos 1707 2.9 01:25:23 10° N 01:28:38 56° ENE 01:31:52 10° SSE
Cosmos 921 Rocket 4.2 01:25:01 10° NW 01:28:40 26° W 01:31:10 16° SW
Cosmos 44 Rocket 4.0 01:25:06 14° S 01:28:42 41° ESE 01:33:09 10° NE
Cosmos 1743 2.3 01:28:38 17° S 01:31:09 89° E 01:34:31 10° N
Cosmos 1980 Rocket 3.0 01:25:56 10° WSW 01:31:13 45° NW 01:36:38 10° NNE
NPP 3.7 01:27:11 10° NNE 01:32:38 87° ESE 01:37:31 13° SSW
Cosmos 1697 Rocket 4.4 01:32:08 10° W 01:36:56 27° NW 01:41:44 10° NNE
Lacrosse 5 rocket 3.3 01:36:51 10° WSW 01:37:12 10° WSW 01:37:12 10° WSW
Meteor 1-20 Rocket 4.3 01:33:05 13° SSW 01:38:15 79° WNW 01:44:00 10° NNE
KORONAS-FOTON 3.5 01:34:51 10° NNW 01:38:25 89° W 01:41:56 10° S
Cosmos 2151 3.6 01:35:22 15° SW 01:38:30 41° WNW 01:42:26 10° N
Cosmos 1140 Rocket 3.5 01:35:46 10° NNW 01:40:53 64° WSW 01:46:00 10° S
CZ-2C R/B 4.2 01:37:53 12° SW 01:41:25 21° W 01:45:34 10° NW
Resurs 1-4 Rocket 2.6 01:37:27 10° NNE 01:42:44 60° ESE 01:47:58 10° S
Cosmos 1842 2.9 01:44:31 10° N 01:47:57 87° E 01:51:20 10° S
Cosmos 1076 Rocket 3.5 01:46:03 13° SSW 01:49:53 74° W 01:54:09 10° N
Cosmos 1844 Rocket 2.9 01:46:21 10° NW 01:51:47 49° WSW 01:57:08 10° S
SJ 16-02 4.0 01:48:43 10° N 01:52:13 24° NE 01:55:42 10° ESE
Cosmos 407 Rocket 3.5 01:50:34 10° NNW 01:55:50 82° WSW 02:01:08 10° SSE
Cosmos 1844 3.9 01:50:37 10° NW 01:56:06 51° WSW 02:01:38 10° S
CZ-2D R/B 2.3 01:51:05 10° NNE 01:56:19 69° ESE 02:01:30 10° S
IDEFIX/ARIANE 42P 2.9 01:52:14 10° N 01:57:16 53° WNW 02:02:09 11° SW
Cosmos 1151 Rocket 3.8 01:53:41 10° N 01:57:57 54° ENE 02:02:08 10° SSE
H-2A R/B 2.0 01:56:53 10° NNE 02:01:08 79° WNW 02:05:25 10° SSW
Cosmos 2184 Rocket 4.2 01:55:17 10° S 02:01:39 78° E 02:08:03 10° NNE
Cosmos 2221 4.4 01:59:34 10° NW 02:02:07 16° W 02:04:40 10° WSW
Cosmos 2237 4.5 01:58:13 11° SW 02:03:44 64° NW 02:09:25 10° NNE
Cosmos 1943 Rocket 4.5 02:03:02 10° NNW 02:08:00 30° NE 02:12:58 10° E
Cosmos 1953 Rocket 4.0 02:04:16 11° SSW 02:08:20 48° WNW 02:12:33 10° N
ATLAS CENTAUR R/B 3.8 02:07:09 10° SE 02:08:21 11° ESE 02:09:35 10° E
SeaSat 1 2.8 02:03:45 10° S 02:08:25 43° WSW 02:13:06 10° NW
Cosmos 2360 Rocket 2.6 02:03:28 10° SSW 02:08:59 62° ESE 02:14:33 10° NE
Cosmos 1346 Rocket 3.7 02:09:58 10° SW 02:13:17 31° WNW 02:16:37 10° N
Cosmos 2278 3.8 02:08:09 10° SW 02:13:48 75° WNW 02:19:29 10° NNE
Cosmos 2154 Rocket 4.2 02:07:45 10° S 02:14:02 83° E 02:20:24 10° NNE
ARIANE 6 FM1 Upper Stage 4.4 02:11:49 10° S 02:14:56 22° ESE 02:18:04 10° ENE
Cosmos 1733 3.2 02:14:22 10° SSW 02:17:11 41° WNW 02:20:04 10° N
Molniya-1 4.5 02:19:32 10° SW 02:23:15 86° NW 02:34:11 10° NE
Cosmos 2219 Rocket 3.0 02:18:21 10° S 02:23:42 48° ESE 02:29:04 10° NE
H-2A R/B 3.4 02:19:32 10° NNE 02:24:04 35° E 02:28:32 10° SSE
Cosmos 2074 Rocket 4.1 02:20:42 10° SSW 02:26:53 72° WNW 02:33:10 10° N
ADEOS II 2.2 02:23:55 10° NNE 02:29:12 89° W 02:34:27 10° SSW
Cosmos 1954 Rocket 4.2 02:24:25 10° NNW 02:29:38 80° ENE 02:34:51 10° SSE
Cosmos 405 Rocket 3.8 02:26:57 10° SSE 02:29:54 34° E 02:32:54 10° NNE
CENTAUR R/B 2.7 02:25:03 10° SW 02:30:52 84° SE 02:38:16 10° NE
Cosmos 2322 Rocket 2.3 02:25:27 10° SSW 02:31:06 86° WNW 02:36:47 10° NNE
ALOS 2.3 02:27:10 10° NNE 02:31:46 83° WNW 02:36:21 10° SSW
